Date String (YYYY-MM-DD hh:mm:ss) UTC,Instrument flags,Ambient pressure (hPa),Sample flow (lpm),Bypass flow (lpm),Sample temperature (°C),Ambient temperature (°C),ASC tube jacket temperature (°C),LED temperature (°C),Box temperature (°C),Sample RH (%),Span deviation,Mass concentration (μg/m³),Mass concentration (μg/m³),Mass concentration (μg/m³)
DateTimeUTC,F1_M11,P_M11,Q1_M11,Q2_M11,T1_M11,T2_M11,T3_M11,T4_M11,T5_M11,U1_M11,ZSPAN_M11,X0_M11,X2_M11,X1_M11
2022-10-17 13:00:00,,0833.4,5.01,0.00,23.9,22.3,00.0,32.9,25.6,15.1,0000.0,0009.61,0005.40,0005.06
2022-10-17 13:01:00,,0833.4,4.99,0.00,23.9,22.3,00.0,32.9,25.6,15.1,0000.0,0008.89,0005.39,0005.05
2022-10-17 13:02:00,,0833.4,5.00,0.00,23.9,22.3,00.0,32.8,25.6,15.1,0000.0,0008.93,0005.40,0005.05
2022-10-17 13:03:00,,0833.3,5.01,0.00,23.9,22.3,00.0,32.8,25.6,15.1,0000.0,0008.92,0005.40,0005.05
2022-10-17 13:04:00,,0833.3,4.98,0.00,23.9,22.3,00.0,32.8,25.6,15.1,0000.0,0008.86,0005.39,0005.04
2022-10-17 13:05:00,,0833.3,5.01,0.00,23.9,22.3,00.0,32.8,25.7,15.1,0000.0,0008.77,0005.37,0005.02
2022-10-17 13:06:00,,0833.3,4.99,0.00,23.9,22.3,00.0,32.8,25.6,15.1,0000.0,0008.20,0005.35,0005.02
2022-10-17 13:07:00,,0833.2,5.00,0.00,23.9,22.3,00.0,32.8,25.6,15.1,0000.0,0007.95,0005.34,0005.01
2022-10-17 13:08:00,,0833.2,5.00,0.00,23.9,22.3,00.0,32.8,25.6,15.0,0000.0,0007.90,0005.32,0005.01
2022-10-17 13:09:00,,0833.2,5.00,0.00,23.9,22.3,00.0,32.8,25.6,15.1,0000.0,0007.97,0005.33,0005.02
2022-10-17 13:10:00,,0833.2,5.00,0.00,23.9,22.3,00.0,32.8,25.6,15.1,0000.0,0008.61,0005.34,0005.02
2022-10-17 13:11:00,,0833.2,5.01,0.00,23.8,22.3,00.0,32.8,25.6,15.1,0000.0,0008.90,0005.35,0005.02
2022-10-17 13:12:00,,0833.2,4.99,0.00,23.8,22.2,00.0,32.8,25.6,15.1,0000.0,0008.77,0005.33,0005.01
2022-10-17 13:13:00,,0833.2,5.02,0.00,23.8,22.2,00.0,32.8,25.6,15.1,0000.0,0008.75,0005.34,0005.04
2022-10-17 13:14:00,,0833.1,5.01,0.00,23.8,22.2,00.0,32.8,25.6,15.1,0000.0,0008.90,0005.36,0005.05
2022-10-17 13:15:00,,0833.2,4.99,0.00,23.8,22.2,00.0,32.8,25.6,15.2,0000.0,0009.04,0005.38,0005.07
2022-10-17 13:16:00,,0833.2,5.00,0.00,23.8,22.2,00.0,32.8,25.6,15.2,0000.0,0009.11,0005.41,0005.10
2022-10-17 13:17:00,,0833.3,5.01,0.00,23.8,22.2,00.0,32.8,25.5,15.2,0000.0,0009.11,0005.42,0005.12
2022-10-17 13:18:00,,0833.3,5.00,0.00,23.8,22.2,00.0,32.7,25.5,15.2,0000.0,0009.03,0005.44,0005.15
2022-10-17 13:19:00,,0833.3,5.00,0.00,23.8,22.2,00.0,32.7,25.5,15.2,0000.0,0009.09,0005.45,0005.17
2022-10-17 13:20:00,,0833.4,5.00,0.00,23.8,22.2,00.0,32.7,25.6,15.2,0000.0,0009.08,0005.48,0005.18
2022-10-17 13:21:00,,0833.4,5.00,0.00,23.8,22.2,00.0,32.7,25.5,15.2,0000.0,0008.50,0005.49,0005.21
2022-10-17 13:22:00,,0833.4,4.99,0.00,23.8,22.2,00.0,32.7,25.5,15.2,0000.2,0008.28,0005.49,0005.23
2022-10-17 13:23:00,,0833.4,4.99,0.00,23.8,22.2,00.0,32.7,25.6,15.2,0000.0,0008.56,0005.55,0005.24
2022-10-17 13:24:00,,0833.4,5.01,0.00,23.8,22.2,00.0,32.7,25.6,15.2,0000.0,0008.61,0005.53,0005.23
2022-10-17 13:25:00,,0833.4,4.99,0.00,23.8,22.2,00.0,32.7,25.6,15.2,0000.0,0008.52,0005.52,0005.22
2022-10-17 13:26:00,,0833.4,4.99,0.00,23.8,22.2,00.0,32.7,25.6,15.2,0000.0,0008.39,0005.50,0005.22
2022-10-17 13:27:00,,0833.4,5.01,0.00,23.8,22.2,00.0,32.7,25.6,15.2,0000.0,0008.34,0005.47,0005.20
2022-10-17 13:28:00,,0833.4,5.00,0.00,23.8,22.2,00.0,32.7,25.5,15.2,0000.0,0008.39,0005.47,0005.18
2022-10-17 13:29:00,,0833.4,5.00,0.00,23.8,22.2,00.0,32.7,25.6,15.2,0000.0,0008.43,0005.48,0005.18
2022-10-17 13:30:00,,0833.5,5.01,0.00,23.7,22.2,00.0,32.7,25.5,15.2,0000.0,0008.39,0005.48,0005.18
2022-10-17 13:31:00,,0833.4,4.99,0.00,23.7,22.2,00.0,32.7,25.5,15.2,0000.0,0008.41,0005.47,0005.17
2022-10-17 13:32:00,,0833.4,5.00,0.00,23.8,22.2,00.0,32.7,25.5,15.2,0000.0,0008.38,0005.45,0005.15
2022-10-17 13:33:00,,0833.5,5.01,0.00,23.8,22.2,00.0,32.7,25.5,15.2,0000.0,0008.40,0005.46,0005.15
2022-10-17 13:34:00,,0833.4,4.99,0.00,23.7,22.2,00.0,32.7,25.5,15.2,0000.0,0008.33,0005.48,0005.15
2022-10-17 13:35:00,,0833.4,5.01,0.00,23.7,22.2,00.0,32.6,25.5,15.1,0000.0,0008.16,0005.47,0005.15
2022-10-17 13:36:00,,0833.4,4.99,0.00,23.7,22.2,00.0,32.6,25.5,15.1,0000.0,0008.36,0005.49,0005.16
2022-10-17 13:37:00,,0833.4,5.00,0.00,23.7,22.2,00.0,32.6,25.5,15.1,0000.0,0008.62,0005.50,0005.16
2022-10-17 13:38:00,,0833.4,5.00,0.00,23.7,22.2,00.0,32.6,25.5,15.1,0000.0,0009.40,0005.53,0005.16
2022-10-17 13:39:00,,0833.4,5.00,0.00,23.7,22.2,00.0,32.6,25.5,15.0,0000.0,0009.43,0005.54,0005.16
2022-10-17 13:40:00,,0833.4,5.00,0.00,23.7,22.2,00.0,32.6,25.5,15.1,0000.0,0009.42,0005.50,0005.15
2022-10-17 13:41:00,,0833.5,5.00,0.00,23.7,22.2,00.0,32.6,25.5,15.0,0000.0,0009.58,0005.49,0005.14
2022-10-17 13:42:00,,0833.5,5.00,0.00,23.7,22.2,00.0,32.6,25.5,15.0,0000.0,0009.54,0005.47,0005.13
2022-10-17 13:43:00,,0833.5,5.00,0.00,23.7,22.2,00.0,32.6,25.5,15.0,0000.0,0009.54,0005.46,0005.10
2022-10-17 13:44:00,,0833.5,4.99,0.00,23.7,22.2,00.0,32.6,25.5,15.0,0000.0,0009.54,0005.42,0005.06
2022-10-17 13:45:00,,0833.5,5.01,0.00,23.7,22.2,00.0,32.6,25.6,15.0,0000.0,0009.48,0005.37,0005.02
2022-10-17 13:46:00,,0833.5,5.01,0.00,23.7,22.3,00.0,32.6,25.5,15.0,0000.0,0010.27,0005.35,0004.98
2022-10-17 13:47:00,,0833.5,4.98,0.00,23.7,22.3,00.0,32.6,25.5,15.0,0000.0,0010.64,0005.35,0004.94
2022-10-17 13:48:00,,0833.5,4.99,0.00,23.7,22.3,00.0,32.6,25.5,15.0,0000.0,0011.19,0005.30,0004.89
2022-10-17 13:49:00,,0833.5,5.00,0.00,23.7,22.3,00.0,32.6,25.5,15.0,0000.0,0010.24,0005.24,0004.85
2022-10-17 13:50:00,,0833.5,5.01,0.00,23.7,22.3,00.0,32.6,25.5,15.0,0000.0,0010.44,0005.21,0004.82
2022-10-17 13:51:00,,0833.5,5.00,0.00,23.7,22.3,00.0,32.6,25.5,15.0,0000.0,0010.64,0005.21,0004.79
2022-10-17 13:52:00,,0833.5,5.00,0.00,23.7,22.3,00.0,32.6,25.5,15.0,0000.0,0010.42,0005.19,0004.76
2022-10-17 13:53:00,,0833.5,5.00,0.00,23.7,22.3,00.0,32.6,25.6,15.0,0000.0,0010.37,0005.18,0004.75
2022-10-17 13:54:00,,0833.5,5.00,0.00,23.7,22.3,00.0,32.6,25.5,15.0,0000.0,0010.49,0005.18,0004.74
2022-10-17 13:55:00,,0833.4,5.00,0.00,23.7,22.3,00.0,32.6,25.5,15.0,0000.0,0010.48,0005.17,0004.74
2022-10-17 13:56:00,,0833.4,5.00,0.00,23.7,22.3,00.0,32.6,25.5,15.0,0000.0,0010.43,0005.16,0004.74
2022-10-17 13:57:00,,0833.4,4.99,0.00,23.7,22.3,00.0,32.6,25.5,15.0,0000.0,0009.81,0005.16,0004.75
2022-10-17 13:58:00,,0833.4,5.01,0.00,23.7,22.3,00.0,32.6,25.5,15.0,0000.0,0009.25,0005.14,0004.74
2022-10-17 13:59:00,,0833.4,5.00,0.00,23.7,22.3,00.0,32.6,25.6,15.0,0000.0,0008.47,0005.14,0004.74
